#timestamp,LO_Frequency,Hit,StdDev 
1588911075.2,286047015.6,P
1588911095.9,286047012.6,P
1588911115.7,286047013.6,P
1588911135.6,286047011.2,Y
1588911155.4,286046999.4,P
1588911175.3,286046998.2,N
1588911195.1,286046998.6,N
1588911196.0,286046998.6,N
1588911215.8,286046999.4,N
1588911235.7,286046998.8,N
1588911255.5,286047001.2,N
1588911275.3,286046998.5,N
1588911295.2,286046998.4,N
1588911315.0,286046998.2,N
1588911315.9,286046998.2,N
1588911335.8,286046998.4,N
1588911355.6,286046997.5,N
1588911375.4,286046997.6,N
1588911395.3,286046994.2,N
1588911415.1,286046990.8,N
1588911435.9,286046988.9,N
1588911455.7,286046989.6,N
1588911475.5,286046990.8,N
1588911495.4,286046994.8,N
1588911515.2,286046994.0,N
1588911535.0,286046993.0,N
1588911535.9,286046993.0,N
1588911555.8,286046987.0,N
1588911575.6,286046988.0,N
1588911595.5,286046983.7,Y
1588911615.3,286046988.9,P
1588911635.1,286046988.9,P
1588911655.9,286046988.7,P
1588911675.7,286046987.1,Y
1588911695.6,286046998.0,P
1588911715.4,286046995.1,N
1588911735.2,286046995.2,N
1588911755.1,286046994.9,N
1588911756.0,286046994.9,N
1588911775.8,286046997.7,N
1588911795.6,286046995.4,N
1588911815.5,286046996.0,N
1588911835.3,286046994.9,N
1588911855.2,286046997.2,N
1588911875.9,286046995.1,N
1588911895.7,286046995.6,N
1588911915.6,286046995.6,N
1588911935.4,286046995.5,N
1588911955.2,286046997.5,N
1588911975.1,286046995.5,N
1588911976.0,286047011.9,Y
1588911995.8,286046999.2,P
1588912015.7,286046999.3,N
1588912035.5,286047000.7,N
1588912055.3,286047002.1,N
1588912075.2,286047003.9,N
1588912095.0,286047003.2,N
1588912095.9,286047003.2,N
1588912115.8,286047005.8,N
1588912135.6,286047003.2,N
1588912155.4,286047003.3,N
1588912175.3,286047003.9,N
1588912195.1,286047003.0,N
1588912215.8,286047003.9,N
1588912235.7,286047004.3,N
1588912255.5,286047000.4,N
1588912275.4,286046998.5,N
1588912295.2,286047002.4,N
1588912315.0,286047002.0,N
1588912315.9,286047002.0,N
1588912335.8,286047002.3,N
1588912355.6,286046998.1,N
1588912375.4,286046998.6,N
1588912395.3,286047000.3,N
1588912415.1,286047002.5,N
1588912435.9,286047002.0,N
1588912455.7,286047000.4,N
1588912475.5,286046998.1,N
1588912495.4,286046999.4,N
1588912515.2,286046997.9,N
1588912535.0,286046995.8,N
1588912535.9,286046995.8,N
1588912555.8,286046994.9,N
1588912575.6,286046997.5,N
1588912595.5,286046997.5,N
1588912615.3,286046995.5,N
1588912635.1,286046995.6,N
1588912655.9,286046997.2,N
1588912675.7,286046997.9,N
1588912695.5,286046997.9,N
1588912715.4,286046997.1,N
1588912735.2,286046997.9,N
1588912755.1,286046996.7,N
1588912756.0,286046996.7,N
1588912775.8,286046999.6,N
1588912795.6,286046999.6,N
1588912815.5,286046996.8,N
1588912835.3,286046994.9,N
1588912855.1,286046993.4,N
1588912875.9,286046994.0,N
1588912895.7,286046994.8,N
1588912915.6,286046994.0,N
1588912935.4,286046993.6,N
1588912955.2,286046994.0,N
1588912975.1,286046993.3,N
1588912976.0,286046993.3,Y
1588912995.8,286046999.0,P
1588913015.7,286046998.6,N
1588913035.5,286047002.7,N
1588913055.3,286047002.4,N
1588913075.2,286047002.2,N
1588913095.0,286047004.2,N
1588913095.9,286047004.2,N
1588913115.7,286047002.1,N
1588913135.6,286046999.8,N
1588913155.4,286047002.0,N
1588913175.3,286047001.7,N
1588913195.1,286047001.6,N
1588913196.0,286047001.6,N
1588913215.8,286047001.4,N
1588913235.7,286047001.3,N
1588913255.5,286047003.3,N
1588913275.4,286047004.1,N
1588913295.2,286047001.5,N
1588913315.0,286047004.3,N
1588913315.9,286047004.3,N
1588913335.8,286047002.2,N
1588913355.6,286047004.0,N
1588913375.4,286047003.3,N
1588913395.3,286047003.1,N
1588913415.1,286047004.1,N
1588913435.9,286047001.3,N
1588913455.7,286047003.1,N
1588913475.5,286047006.0,Y
1588913495.4,286047001.9,P
1588913515.2,286047002.1,P
1588913535.0,286047002.4,P
1588913536.0,286047002.4,Y
1588913555.8,286046998.0,P
1588913575.6,286046993.6,P
1588913595.5,286046993.3,N
1588913615.3,286046993.7,N
1588913635.1,286046994.5,N
1588913655.9,286046993.4,N
1588913675.7,286046994.7,N
1588913695.6,286046992.4,N
1588913715.4,286046991.9,N
1588913735.2,286046996.4,N
1588913755.1,286046997.9,N
1588913756.0,286046997.9,N
1588913775